Weather History for Lone Rock, WI

Change the Weather History Date:

Monday, September 24, 2012

  Actual Average Record
Temperature  
Mean Temperature 50 °F -  
Max Temperature 73 °F 66 °F 88 °F (2007)
Min Temperature 27 °F 45 °F 27 °F (2012)
Degree Days  
Heating Degree Days 15    
Moisture  
Dew Point 33 °F    
Average Humidity 55    
Maximum Humidity 92    
Minimum Humidity 25    
Precipitation  
Precipitation 0.00 in - - ()
Sea Level Pressure  
Sea Level Pressure 29.99 in    
Wind  
Wind Speed 4 mph (SW)    
Max Wind Speed 21 mph    
Max Gust Speed 28 mph    
Visibility 10 miles    
Events      
Averages and records for this station are not official NWS values.
T = Trace of Precipitation, MM = Missing Value Source: NWS Daily Summary

Daily Weather History Graph

Daily Weather History Graph

Search for Another Location

Airport:

Trip Planner

Search our weather history database for the weather conditions in past years. The results will help you decide how hot, cold, wet, or windy it might be!

Date:

Astronomy

Sep. 24, 2012 Rise Set
Actual Time 6:50 AM CDT 6:53 PM CDT
Civil Twilight 6:22 AM CDT 7:21 PM CDT
Nautical Twilight 5:49 AM CDT 7:55 PM CDT
Astronomical Twilight 5:15 AM CDT 8:28 PM CDT
Moon 3:46 PM CDT (9/24) 12:59 AM CDT (9/24)
Length of Visible Light 12h 59m
Length of Day
12h 02m
Waxing Gibbous, 71% of the Moon is Illuminated
Sep 24
Waxing Gibbous
Sep 29
Full
Oct 8
Last Quarter
Oct 15
New
Oct 21
First Quarter

Hourly Weather History & Observations

Time (CDT) Temp. Windchill Dew Point Humidity Pressure Visibility Wind Dir Wind Speed Gust Speed Precip Events Conditions
12:56 AM 30.9 °F - 28.9 °F 92% 30.21 in 10.0 mi Calm Calm - N/A   Clear
1:56 AM 30.0 °F - 27.0 °F 88% 30.21 in 10.0 mi Calm Calm - N/A   Clear
2:56 AM 28.0 °F - 26.1 °F 92% 30.19 in 10.0 mi Calm Calm - N/A   Clear
3:56 AM 28.9 °F - 26.1 °F 89% 30.18 in 10.0 mi Calm Calm - N/A   Clear
4:56 AM 28.0 °F - 25.0 °F 88% 30.17 in 10.0 mi Calm Calm - N/A   Clear
5:56 AM 27.0 °F - 24.1 °F 89% 30.16 in 10.0 mi Calm Calm - N/A   Clear
6:56 AM 27.0 °F - 24.1 °F 89% 30.15 in 10.0 mi Calm Calm - N/A   Clear
7:56 AM 30.9 °F - 28.9 °F 92% 30.14 in 10.0 mi Calm Calm - N/A   Clear
8:56 AM 42.1 °F 40.2 °F 34.0 °F 73% 30.12 in 10.0 mi East 3.5 mph - N/A   Clear
9:56 AM 52.0 °F - 34.0 °F 50% 30.09 in 10.0 mi SW 4.6 mph - N/A   Clear
10:56 AM 60.1 °F - 30.0 °F 32% 30.05 in 10.0 mi SW 12.7 mph 19.6 mph N/A   Clear
11:56 AM 64.0 °F - 33.1 °F 31% 30.01 in 10.0 mi SW 15.0 mph 25.3 mph N/A   Clear
12:56 PM 68.0 °F - 33.1 °F 27% 29.97 in 10.0 mi SW 13.8 mph 26.5 mph N/A   Clear
1:56 PM 71.1 °F - 35.1 °F 27% 29.92 in 10.0 mi WSW 15.0 mph 24.2 mph N/A   Clear
2:56 PM 72.0 °F - 34.0 °F 25% 29.88 in 10.0 mi SW 17.3 mph 24.2 mph N/A   Clear
3:56 PM 73.0 °F - 35.1 °F 25% 29.85 in 10.0 mi WSW 20.7 mph 27.6 mph N/A   Clear
4:56 PM 73.0 °F - 36.0 °F 26% 29.82 in 10.0 mi SW 15.0 mph 25.3 mph N/A   Clear
5:56 PM 72.0 °F - 37.9 °F 29% 29.81 in 10.0 mi SW 6.9 mph 21.9 mph N/A   Clear
6:56 PM 68.0 °F - 39.0 °F 35% 29.81 in 10.0 mi SW 5.8 mph - N/A   Clear
7:56 PM 62.1 °F - 39.0 °F 43% 29.82 in 10.0 mi Calm Calm - N/A   Clear
8:56 PM 63.0 °F - 37.9 °F 40% 29.82 in 10.0 mi West 4.6 mph - N/A   Clear
9:56 PM 62.1 °F - 37.9 °F 41% 29.83 in 10.0 mi SW 8.1 mph - N/A   Clear
10:56 PM 59.0 °F - 37.9 °F 46% 29.83 in 10.0 mi Variable 5.8 mph - N/A   Clear
11:56 PM 60.1 °F - 39.0 °F 46% 29.82 in 10.0 mi SW 6.9 mph - N/A   Clear